{"data":{"norad_id":54244,"epoch":"2026-09-20T01:05:34.592064Z","epoch_age_seconds":53754,"freshness":"FRESH","line1":"1 54244U 22153B   26263.04553926 -.00000178  00000+0  00000+0 0  9990","line2":"2 54244   0.0194 117.6552 0000157 306.8176 219.8808  1.00271507 14099","mean_motion":1.00271507,"eccentricity":1.57e-5,"inclination_deg":0.0194,"raan_deg":117.6552,"arg_perigee_deg":306.8176,"mean_anomaly_deg":219.8808,"bstar":0,"rev_number":1409,"period_min":1436.1008855686,"perigee_km":35786.010907347,"apogee_km":35787.334882378,"semimajor_km":42164.809894862,"source":"CELESTRAK","updated_at":"2026-09-20T09:00:35.525585Z"}}